E7739 Weather Reports


Display with metric or nautical units.
time (UTC)temp
F
wind
direction
speed
MPH
gust
MPH
rain 1hr
in
rain 24hr
in
rain mn
in
humidity
%
barometer
mb
20260504060148 50 212 0.0 0.0 0.00 0.00 0.00 88 1006.9
20260504050355 53 212 0.0 2.0 0.00 0.00 0.00 80 1007.5
20260504045843 53 212 0.0 2.0 0.00 0.00 0.00 80 1007.6
20260504045327 53 212 0.0 2.0 0.00 0.00 0.00 79 1007.6
20260504044809 54 198 0.0 3.0 0.00 0.00 0.00 78 1007.8
20260504044257 54 212 1.0 3.0 0.00 0.00 0.00 78 1007.8
20260504043747 54 212 1.0 3.0 0.00 0.00 0.00 77 1007.8
20260504043248 55 248 1.0 3.0 0.00 0.00 0.00 77 1007.8
20260504042734 55 228 1.0 4.0 0.00 0.00 0.00 77 1007.8
20260504042218 54 223 0.0 4.0 0.00 0.00 0.00 77 1007.8
20260504041709 55 230 0.0 3.0 0.00 0.00 0.00 76 1007.8
20260504041154 55 230 2.0 5.0 0.00 0.00 0.00 76 1007.8
20260504040642 55 233 2.0 5.0 0.00 0.00 0.00 76 1007.8
20260504040126 54 245 2.0 5.0 0.00 0.00 0.00 77 1007.9
20260504035610 54 199 1.0 4.0 0.00 0.00 0.00 78 1007.9
20260504035054 53 210 0.0 2.0 0.00 0.00 0.00 79 1007.9
20260504034550 53 210 0.0 0.0 0.00 0.00 0.00 78 1008.1
20260504033542 54 210 0.0 0.0 0.00 0.00 0.00 77 1008.1
20260504033030 54 210 0.0 0.0 0.00 0.00 0.00 77 1008.3
20260504032523 55 210 0.0 0.0 0.00 0.00 0.00 76 1008.3
20260504032002 55 210 0.0 0.0 0.00 0.00 0.00 76 1008.3
20260504030948 55 210 1.0 3.0 0.00 0.00 0.00 75 1008.1
20260504030433 55 210 0.0 3.0 0.00 0.00 0.00 75 1008.1
20260504025916 55 210 1.0 4.0 0.00 0.00 0.00 75 1008.0
20260504025400 55 210 2.0 4.0 0.00 0.00 0.00 75 1008.0
20260504024848 55 215 2.0 4.0 0.00 0.00 0.00 76 1008.0
20260504024351 55 217 1.0 3.0 0.00 0.00 0.00 77 1008.2
20260504023847 55 205 1.0 3.0 0.00 0.00 0.00 76 1008.2
20260504023340 55 205 1.0 3.0 0.00 0.00 0.00 76 1008.2
20260504021822 56 205 0.0 2.0 0.00 0.00 0.00 73 1008.1
20260504021313 57 205 0.0 2.0 0.00 0.00 0.00 72 1008.1
20260504020757 57 205 0.0 2.0 0.00 0.00 0.00 71 1008.1
20260504020239 57 205 0.0 2.0 0.00 0.00 0.00 71 1007.9
20260504015740 58 205 0.0 2.0 0.00 0.00 0.00 71 1007.9
20260504015232 58 205 0.0 2.0 0.00 0.00 0.00 71 1007.9
20260504014712 59 205 0.0 2.0 0.00 0.00 0.00 68 1007.9
20260504014202 60 205 0.0 2.0 0.00 0.00 0.00 68 1007.9
20260504013652 60 205 1.0 2.0 0.00 0.00 0.00 67 1007.9
20260504013146 61 205 1.0 2.0 0.00 0.00 0.00 65 1007.8
20260504012637 62 236 1.0 2.0 0.00 0.00 0.00 62 1007.8
20260504012129 63 236 1.0 3.0 0.00 0.00 0.00 61 1007.8
20260504011625 64 236 1.0 4.0 0.00 0.00 0.00 60 1007.6
20260504011122 64 235 2.0 5.0 0.00 0.00 0.00 59 1007.6
20260504010602 64 219 2.0 5.0 0.00 0.00 0.00 59 1007.6
20260504010050 64 235 1.0 4.0 0.00 0.00 0.00 58 1007.6
20260504005540 64 283 0.0 2.0 0.00 0.00 0.00 58 1007.6
20260504004520 65 239 0.0 3.0 0.00 0.00 0.00 56 1007.6
20260504002959 66 278 1.0 3.0 0.00 0.00 0.00 55 1007.3
20260504002450 66 278 1.0 3.0 0.00 0.00 0.00 55 1007.3
20260504001430 67 278 1.0 2.0 0.00 0.00 0.00 54 1007.5
20260504000918 67 278 1.0 5.0 0.00 0.00 0.00 53 1007.5
20260503235400 67 233 1.0 6.0 0.00 0.00 0.00 51 1007.4
20260503234851 67 217 2.0 6.0 0.00 0.00 0.00 51 1007.4
20260503234341 68 278 4.0 10.0 0.00 0.00 0.00 51 1007.7
20260503233834 68 209 4.0 10.0 0.00 0.00 0.00 50 1007.7
20260503233328 68 278 3.0 9.0 0.00 0.00 0.00 50 1007.7
20260503232818 67 213 3.0 7.0 0.00 0.00 0.00 49 1007.6
20260503232314 68 291 3.0 9.0 0.00 0.00 0.00 49 1007.6
20260503231248 68 258 3.0 7.0 0.00 0.00 0.00 49 1007.8
20260503230734 68 249 3.0 7.0 0.00 0.00 0.00 49 1007.8
20260503225714 68 284 3.0 12.0 0.00 0.00 0.00 49 1007.9
20260503225208 68 289 4.0 12.0 0.00 0.00 0.00 48 1007.9
20260503224701 68 266 5.0 14.0 0.00 0.00 0.00 48 1007.9
20260503224152 68 291 5.0 14.0 0.00 0.00 0.00 47 1007.9
20260503223646 68 236 4.0 15.0 0.00 0.00 0.00 47 1007.9
20260503223135 68 227 4.0 15.0 0.00 0.00 0.00 47 1008.0
20260503222629 68 254 5.0 12.0 0.00 0.00 0.00 47 1008.0
20260503222115 68 219 7.0 16.0 0.00 0.00 0.00 47 1008.0
20260503221610 67 231 7.0 16.0 0.00 0.00 0.00 46 1008.0
20260503221059 67 252 7.0 15.0 0.00 0.00 0.00 48 1008.0
20260503220044 67 250 7.0 18.0 0.00 0.00 0.00 49 1007.9
20260503215546 67 217 7.0 18.0 0.00 0.00 0.00 48 1007.9
20260503215043 67 219 6.0 15.0 0.00 0.00 0.00 48 1007.9
20260503214041 67 248 7.0 16.0 0.00 0.00 0.00 50 1008.2
20260503213540 66 244 9.0 19.0 0.00 0.00 0.00 48 1008.2
20260503213038 65 194 11.0 22.0 0.00 0.00 0.00 48 1008.1
20260503212536 65 252 12.0 23.0 0.00 0.00 0.00 48 1008.1
20260503211532 66 171 11.0 27.0 0.00 0.00 0.00 47 1008.1
20260503211032 66 204 11.0 26.0 0.00 0.00 0.00 48 1008.1
20260503210531 66 221 12.0 26.0 0.00 0.00 0.00 48 1008.1
20260503210031 65 204 13.0 23.0 0.00 0.00 0.00 47 1008.6
20260503205022 64 240 12.0 24.0 0.00 0.00 0.00 48 1008.6
20260503204520 64 223 14.0 26.0 0.00 0.00 0.00 48 1008.6
20260503203009 65 238 16.0 29.0 0.00 0.00 0.00 49 1009.1
20260503202510 64 241 17.0 26.0 0.00 0.00 0.00 50 1009.1
20260503202011 64 230 17.0 29.0 0.00 0.00 0.00 48 1009.1
20260503201509 64 210 18.0 30.0 0.00 0.00 0.00 49 1009.2
20260503201011 64 208 18.0 30.0 0.00 0.00 0.00 48 1009.2
20260503200009 64 212 18.0 28.0 0.00 0.00 0.00 48 1009.6
20260503195510 64 200 18.0 30.0 0.00 0.00 0.00 49 1009.6
20260503195006 64 239 17.0 30.0 0.00 0.00 0.00 49 1009.6
20260503194506 64 233 16.0 29.0 0.00 0.00 0.00 49 1009.8
20260503194005 63 210 17.0 31.0 0.00 0.00 0.00 50 1009.8
20260503193005 63 191 15.0 26.0 0.00 0.00 0.00 48 1009.8
20260503192502 63 251 15.0 26.0 0.00 0.00 0.00 47 1009.8
20260503192005 64 234 15.0 29.0 0.00 0.00 0.00 47 1009.8
20260503191458 63 208 15.0 33.0 0.00 0.00 0.00 47 1010.2
20260503190959 63 223 15.0 33.0 0.00 0.00 0.00 47 1010.2
20260503185953 63 177 15.0 28.0 0.00 0.00 0.00 46 1010.3
20260503184953 63 227 15.0 30.0 0.00 0.00 0.00 48 1010.3
20260503183947 64 246 15.0 26.0 0.00 0.00 0.00 49 1011.2
20260503183440 64 206 17.0 26.0 0.00 0.00 0.00 47 1011.2
20260503182933 64 199 16.0 26.0 0.00 0.00 0.00 47 1011.9
20260503182423 64 227 15.0 25.0 0.00 0.00 0.00 47 1011.9
20260503181405 62 167 14.0 23.0 0.00 0.00 0.00 50 1012.7
20260503180857 61 233 13.0 24.0 0.00 0.00 0.00 52 1012.7
20260503180351 60 208 13.0 24.0 0.00 0.00 0.00 52 1012.7
20260503175839 60 206 12.0 20.0 0.00 0.00 0.00 52 1013.1
20260503175325 60 253 12.0 20.0 0.00 0.00 0.00 52 1013.1
20260503174819 60 254 12.0 22.0 0.00 0.00 0.00 51 1013.1
20260503174310 60 232 12.0 22.0 0.00 0.00 0.00 50 1013.3
20260503173803 60 219 11.0 20.0 0.00 0.00 0.00 51 1013.3
20260503173253 60 231 10.0 20.0 0.00 0.00 0.00 53 1013.7
20260503172737 60 236 10.0 19.0 0.00 0.00 0.00 51 1013.7
20260503172232 60 209 10.0 21.0 0.00 0.00 0.00 52 1013.7
20260503171721 60 221 12.0 21.0 0.00 0.00 0.00 51 1013.0
20260503171220 60 206 12.0 20.0 0.00 0.00 0.00 52 1013.0
20260503170720 60 172 14.0 27.0 0.00 0.00 0.00 52 1013.0
20260503170219 60 215 14.0 27.0 0.00 0.00 0.00 50 1013.5
20260503160150 60 195 10.0 17.0 0.00 0.00 0.00 54 1015.1
20260503150528 58 233 11.0 17.0 0.00 0.00 0.00 59 1015.6
20260503131417 49 192 6.0 13.0 0.00 0.00 0.00 74 1016.3
20260503130914 49 239 8.0 15.0 0.00 0.00 0.00 74 1016.3
20260503110725 42 224 2.0 4.0 0.00 0.00 0.00 81 1016.5
20260503110222 42 212 2.0 4.0 0.00 0.00 0.00 81 1016.6
20260503090423 38 193 0.0 0.0 0.00 0.00 0.00 85 1017.0
20260503080702 38 179 0.0 0.0 0.00 0.00 0.00 83 1017.2
20260503080145 38 226 0.0 0.0 0.00 0.00 0.00 83 1017.1
20260503072021 38 223 0.0 0.0 0.00 0.00 0.00 82 1017.4
20260503071506 38 223 0.0 0.0 0.00 0.00 0.00 82 1017.4
20260503071004 38 223 0.0 0.0 0.00 0.00 0.00 81 1017.4
20260503070459 38 223 0.0 0.0 0.00 0.00 0.00 81 1017.4